Wind_Speed
29 29 29 29 29 29 30 30 31 30 30 29 30 30 30 30 31 31 31 31 31 32 32 33 34 35 35 35 35 34 34 34 35 35 35 36 37 37 37 36 36 35 34 34
30 30 29 29 29 29 30 30 31 31 29 29 29 30 31 31 31 31 31 32 32 32 33 33 33 34 34 34 34 34 34 34 34 34 34 35 36 35 35 34 34 34 33 32
30 30 31 30 29 30 30 30 31 31 29 29 29 30 31 31 31 31 31 32 32 33 33 33 33 33 33 33 33 33 33 33 33 32 33 33 34 34 34 34 34 33 32 31
31 31 32 30 30 30 30 30 30 30 29 30 30 30 31 32 31 31 31 32 32 33 32 32 32 32 32 31 31 31 32 32 31 31 31 31 31 32 33 33 33 32 31 31
29 30 30 29 29 29 29 29 29 30 30 30 30 30 30 31 31 30 31 31 31 31 31 31 31 31 31 30 30 30 30 30 29 29 30 30 30 31 31 31 31 31 31 31
28 29 29 28 28 29 29 29 29 29 29 29 30 30 29 29 29 29 30 30 30 29 30 29 29 30 30 30 29 29 29 29 29 29 29 29 29 29 29 29 29 29 29 29
28 29 29 28 28 28 28 28 28 28 28 28 28 29 28 28 27 28 28 28 28 28 28 27 27 27 27 27 27 27 27 27 27 28 28 27 27 28 28 28 29 29 29 28
27 28 28 28 28 28 28 27 26 25 25 26 26 27 27 26 26 27 27 27 26 26 26 25 24 24 24 24 24 24 24 24 25 25 25 25 25 26 26 26 27 27 27 27
27 28 28 28 28 27 27 26 25 25 25 25 25 25 25 25 25 25 25 24 24 24 23 23 22 21 21 21 22 22 22 22 23 23 23 24 24 24 24 24 24 24 25 24
27 27 27 27 27 26 25 25 25 25 25 24 25 24 23 23 23 23 23 22 22 21 21 20 19 19 19 20 20 21 21 21 22 22 23 23 23 23 23 23 23 23 23 23
27 26 26 26 26 25 24 24 24 24 24 24 24 23 22 21 22 22 22 21 21 20 19 19 19 19 19 20 20 20 20 20 21 21 22 22 22 22 22 22 22 23 22 22
25 25 26 25 25 24 24 23 23 23 23 22 22 21 20 21 21 21 20 20 19 19 18 18 18 19 20 20 20 20 20 19 20 21 21 21 21 21 21 22 22 22 22 21
24 25 25 25 24 24 23 23 22 22 21 21 21 20 20 20 20 20 20 19 19 19 18 18 19 19 19 20 20 20 20 20 20 21 21 21 21 21 21 21 21 21 21 20
23 24 25 24 24 23 23 22 22 21 21 20 20 20 20 20 20 20 20 19 19 19 19 19 19 19 20 20 20 20 20 20 20 21 21 21 21 21 21 20 20 20 20 20
22 23 23 23 23 23 23 22 22 21 21 20 20 20 20 20 20 20 20 19 19 19 20 20 20 20 20 20 21 20 20 20 21 21 21 21 21 21 21 20 20 19 19 19
21 22 22 22 21 22 22 22 22 21 21 21 20 20 20 20 20 20 19 19 19 19 20 20 21 21 21 21 21 21 21 21 21 22 22 22 21 21 20 20 20 19 19 19
20 21 21 21 21 21 21 21 22 22 22 21 21 20 20 20 20 19 19 19 20 19 20 20 21 21 21 21 21 21 21 21 22 22 22 22 21 20 20 19 19 18 18 18
20 20 20 20 21 21 20 20 20 21 21 21 21 21 21 20 20 19 19 19 19 19 19 20 20 20 20 21 21 22 22 22 21 22 21 21 21 20 19 19 18 18 17 17
20 20 20 20 21 20 20 20 20 20 20 20 21 21 21 21 20 20 20 20 20 20 20 20 20 20 21 21 21 22 22 22 21 21 21 21 20 20 19 18 17 17 16 16
20 20 20 20 20 20 20 20 20 20 21 21 21 21 21 21 21 21 20 20 20 21 21 21 21 21 21 21 21 21 21 21 21 20 20 20 19 18 17 16 16 16 16 15
21 21 20 20 19 19 19 20 20 20 20 21 21 21 22 22 22 21 21 20 21 21 21 21 21 20 20 20 21 21 20 20 20 19 19 19 18 17 16 16 15 15 15 14
22 21 21 20 20 19 19 19 19 20 20 20 21 22 22 22 22 21 21 21 21 21 21 21 20 20 20 20 20 20 19 19 19 19 18 18 17 17 16 16 15 15 15 14
22 22 21 21 21 20 20 20 20 20 21 21 21 22 22 22 21 21 21 21 21 21 21 21 20 20 20 20 20 19 19 18 18 17 17 17 16 15 15 15 15 15 15 14
22 22 22 21 21 21 21 21 21 21 21 21 22 22 21 21 21 21 20 21 21 21 21 21 21 20 20 19 19 19 19 18 17 17 16 16 15 15 15 14 14 15 14 14
21 21 21 21 21 21 21 21 21 21 21 22 21 21 21 21 21 21 21 21 21 21 21 21 21 20 20 19 19 19 18 18 17 17 16 16 15 15 15 14 14 14 14 13
21 20 20 20 21 21 21 22 22 22 22 22 22 23 23 23 22 22 22 22 22 22 22 22 21 20 20 20 19 19 19 18 18 17 16 16 16 15 15 15 14 14 13 13
21 20 20 20 21 21 22 23 23 23 23 23 23 23 24 23 23 23 23 23 23 22 22 22 21 20 20 19 19 19 18 18 17 17 16 16 15 15 15 15 15 14 14 14
Wind_Direction
278 280 282 282 282 283 283 285 285 287 287 288 287 288 288 289 289 289 288 287 285 284 285 285 286 285 284 284 284 284 284 284 284 283 281 280 279 280 279 279 281 281 279 279
276 277 279 280 280 281 283 285 285 285 285 286 287 287 287 289 290 290 289 289 287 286 287 287 287 286 285 284 284 284 284 284 284 284 283 281 281 281 280 279 281 280 279 279
276 276 277 278 281 283 284 285 286 286 286 286 286 288 288 289 290 291 290 289 289 288 288 288 287 288 286 284 284 284 283 284 283 284 284 283 282 281 280 280 281 280 279 279
277 278 278 281 283 285 285 285 285 285 286 286 287 288 289 289 290 290 289 289 289 289 289 290 290 289 288 286 285 284 283 283 283 283 284 284 284 282 281 280 280 279 279 279
278 280 282 283 285 287 288 288 286 286 285 286 287 288 289 291 291 291 290 290 291 291 291 290 290 290 288 287 286 285 284 284 284 284 284 284 284 284 283 282 281 280 279 279
276 280 283 287 288 289 289 289 288 287 286 287 287 289 290 291 292 294 294 294 293 293 292 291 290 289 289 288 286 286 285 284 284 284 284 285 285 285 285 284 283 281 281 280
275 278 281 285 287 290 290 292 291 290 289 289 289 290 292 292 294 295 296 296 296 296 294 291 290 290 291 290 288 287 285 285 284 284 285 285 286 286 287 287 285 283 281 280
276 278 281 285 288 289 291 291 291 291 290 290 291 292 293 294 295 296 297 297 297 298 297 295 293 292 291 291 290 289 288 288 287 287 287 287 288 289 289 288 287 284 281 280
275 279 281 283 286 289 288 288 288 289 291 290 292 294 295 295 296 298 298 298 297 298 298 297 295 293 293 293 292 292 291 290 289 289 289 289 290 290 290 290 289 288 285 283
275 278 280 281 284 287 287 287 287 289 291 291 293 295 296 297 298 299 300 300 299 298 298 298 296 295 295 296 296 296 295 294 293 292 291 292 292 291 290 290 291 293 292 286
275 278 279 280 283 285 285 286 287 289 290 291 293 294 294 296 297 298 300 301 301 300 299 298 297 296 297 299 299 299 298 296 296 296 295 296 295 292 292 292 293 294 293 288
278 279 280 281 284 284 284 285 286 288 289 291 292 293 294 295 297 299 300 300 301 301 300 299 298 298 299 301 302 301 301 299 299 300 300 299 298 296 295 294 294 293 292 289
280 280 281 283 284 284 284 285 286 288 289 291 293 293 295 296 298 300 300 299 299 299 300 299 300 301 301 302 303 303 302 301 300 301 302 301 301 300 299 297 296 295 293 290
281 281 282 283 283 284 284 284 286 287 288 290 293 294 296 298 298 299 299 298 298 298 299 299 300 302 302 303 303 303 302 302 302 302 302 302 302 302 301 299 297 296 294 291
282 283 283 283 283 283 284 283 284 285 287 289 291 293 296 299 300 299 298 299 299 298 297 297 299 300 301 302 303 302 302 302 302 302 302 302 302 302 302 300 297 296 294 291
284 285 284 284 284 283 283 283 283 283 285 287 289 290 294 297 298 298 298 299 300 299 298 297 298 298 299 300 303 303 302 302 302 303 303 302 302 302 303 300 298 297 295 292
288 287 285 284 284 284 284 284 283 283 284 286 288 289 292 295 296 297 298 299 301 302 300 300 300 298 298 299 301 302 304 304 303 303 303 303 302 301 302 301 300 299 298 294
288 288 287 285 284 284 285 285 284 284 284 285 286 288 290 292 294 295 297 299 301 302 303 303 302 300 299 299 301 301 303 303 303 303 303 303 302 301 301 300 300 300 299 296
285 286 286 285 283 282 282 283 285 285 287 288 288 289 289 291 293 295 296 297 299 300 301 302 302 301 301 301 302 301 302 302 302 302 303 303 302 301 299 299 299 299 299 296
285 286 287 285 284 283 283 284 286 287 288 288 289 289 289 290 293 295 296 297 298 299 300 300 300 300 301 302 302 302 301 302 302 303 303 302 302 301 300 300 299 299 299 297
286 286 285 284 284 286 286 286 287 289 290 289 289 289 289 290 292 294 295 296 297 299 301 301 301 301 301 302 303 302 301 301 302 303 303 302 301 300 300 301 302 302 300 299
287 286 284 284 285 287 288 287 289 291 291 290 290 290 290 291 291 293 293 294 296 297 299 301 301 302 301 300 302 302 301 301 300 301 303 303 302 300 299 300 301 303 303 300
286 285 283 283 285 288 288 287 288 290 290 290 290 291 291 291 290 291 292 293 294 295 298 299 300 301 300 300 300 300 301 300 300 300 301 302 302 302 301 299 299 300 302 299
286 284 282 282 283 286 287 287 288 290 290 291 291 292 292 292 291 291 292 293 294 295 296 298 298 299 299 300 301 300 299 299 299 298 299 299 298 300 301 301 299 299 301 299
289 286 283 282 282 284 285 287 290 291 292 292 292 293 293 294 293 291 291 291 293 295 296 296 297 297 298 299 298 298 299 299 297 296 296 295 294 296 299 301 301 299 299 299
292 289 286 285 285 286 286 288 290 292 291 291 291 292 293 294 293 290 289 290 292 293 294 295 295 295 296 296 295 294 294 295 296 296 295 293 292 293 295 296 297 297 298 299
292 290 288 287 287 287 288 289 291 291 291 291 290 291 291 292 292 290 288 288 289 291 292 293 293 293 294 294 293 293 293 293 293 294 293 291 291 292 294 295 294 294 294 296
Height
5615 5615 5614 5613 5613 5611 5609 5608 5606 5605 5603 5602 5599 5598 5596 5594 5591 5589 5587 5585 5582 5581 5579 5577 5575 5573 5571 5569 5567 5565 5563 5561 5559 5557 5555 5554 5553 5551 5550 5549 5547 5545 5543 5542
5608 5607 5606 5605 5605 5603 5602 5600 5598 5597 5596 5595 5592 5590 5588 5586 5584 5581 5579 5576 5574 5572 5570 5568 5566 5563 5561 5559 5557 5555 5554 5552 5550 5548 5546 5544 5543 5541 5540 5539 5537 5535 5534 5533
5599 5599 5598 5598 5598 5596 5595 5593 5591 5589 5590 5587 5584 5582 5580 5578 5575 5573 5571 5568 5566 5564 5561 5559 5556 5554 5552 5550 5548 5546 5545 5543 5541 5539 5537 5535 5533 5532 5531 5530 5528 5526 5525 5524
5591 5591 5590 5593 5591 5589 5587 5586 5584 5582 5580 5578 5576 5574 5572 5569 5567 5565 5563 5560 5558 5555 5553 5550 5547 5545 5543 5541 5539 5537 5536 5534 5532 5530 5528 5526 5525 5523 5522 5520 5519 5517 5516 5515
5583 5582 5582 5584 5583 5581 5579 5578 5576 5574 5572 5571 5569 5567 5565 5562 5559 5557 5554 5552 5549 5546 5544 5541 5539 5536 5534 5532 5531 5529 5527 5525 5523 5521 5520 5518 5516 5515 5513 5512 5510 5509 5507 5506
5576 5575 5574 5577 5575 5573 5572 5570 5569 5566 5564 5562 5561 5560 5558 5554 5551 5549 5546 5543 5541 5538 5535 5533 5531 5528 5526 5524 5522 5521 5519 5517 5515 5514 5512 5510 5509 5507 5505 5503 5502 5500 5499 5497
5569 5568 5568 5569 5567 5566 5565 5564 5561 5558 5556 5555 5553 5551 5550 5547 5544 5542 5539 5536 5533 5530 5528 5525 5523 5521 5519 5516 5515 5513 5511 5509 5508 5506 5505 5503 5501 5499 5497 5495 5494 5492 5491 5489
5562 5561 5563 5561 5560 5559 5558 5555 5553 5551 5550 5548 5546 5544 5542 5540 5537 5535 5532 5529 5526 5523 5521 5518 5516 5514 5512 5510 5508 5506 5504 5502 5501 5499 5498 5496 5494 5492 5490 5488 5486 5484 5483 5481
5556 5557 5555 5554 5553 5551 5550 5548 5547 5545 5543 5542 5540 5538 5535 5533 5531 5528 5525 5522 5520 5517 5515 5512 5510 5508 5506 5504 5502 5500 5498 5496 5494 5493 5491 5489 5487 5485 5483 5481 5479 5477 5476 5474
5548 5548 5548 5546 5545 5544 5543 5541 5540 5539 5537 5536 5534 5531 5529 5527 5524 5522 5519 5516 5514 5512 5509 5507 5505 5503 5501 5499 5497 5495 5493 5491 5489 5487 5485 5483 5481 5479 5477 5475 5473 5471 5469 5468
5541 5542 5541 5540 5539 5538 5536 5535 5534 5532 5531 5529 5527 5525 5523 5521 5519 5516 5514 5511 5509 5507 5505 5502 5500 5499 5496 5494 5492 5490 5488 5486 5484 5482 5480 5478 5475 5473 5471 5469 5467 5465 5463 5461
5535 5535 5534 5534 5532 5531 5530 5529 5528 5526 5525 5523 5521 5519 5517 5515 5513 5511 5509 5506 5504 5502 5500 5498 5496 5494 5492 5489 5487 5485 5483 5481 5479 5477 5475 5472 5470 5467 5465 5463 5461 5458 5456 5455
5529 5528 5527 5527 5526 5525 5524 5523 5522 5520 5519 5517 5516 5514 5512 5510 5508 5506 5504 5501 5499 5497 5495 5493 5491 5489 5487 5485 5483 5480 5478 5476 5474 5471 5469 5467 5464 5462 5460 5458 5455 5453 5451 5449
5523 5522 5521 5520 5520 5519 5518 5517 5516 5515 5513 5512 5510 5508 5507 5505 5503 5501 5499 5497 5495 5493 5491 5489 5487 5485 5482 5480 5478 5476 5473 5471 5469 5466 5464 5462 5459 5457 5454 5452 5450 5448 5445 5443
5517 5516 5515 5514 5513 5512 5511 5511 5510 5509 5508 5506 5505 5503 5502 5500 5498 5496 5494 5492 5490 5488 5486 5484 5482 5480 5478 5475 5473 5471 5468 5466 5464 5461 5459 5456 5454 5451 5449 5446 5444 5442 5440 5438
5511 5510 5509 5508 5508 5507 5506 5505 5504 5503 5502 5501 5499 5498 5496 5494 5493 5491 5489 5487 5485 5483 5481 5479 5477 5475 5472 5470 5468 5466 5463 5461 5458 5456 5453 5451 5448 5446 5443 5441 5439 5437 5435 5433
5506 5505 5504 5503 5502 5501 5500 5499 5498 5497 5496 5495 5494 5492 5491 5489 5488 5486 5484 5482 5480 5478 5476 5474 5471 5469 5467 5465 5463 5461 5458 5455 5453 5450 5448 5445 5443 5440 5438 5436 5433 5431 5429 5427
5500 5499 5498 5497 5496 5495 5494 5493 5492 5491 5490 5489 5488 5487 5486 5484 5482 5481 5479 5477 5475 5472 5470 5468 5466 5464 5461 5459 5457 5455 5452 5450 5447 5445 5442 5440 5437 5435 5433 5430 5428 5426 5424 5423
5494 5493 5493 5492 5491 5490 5489 5488 5487 5486 5485 5483 5482 5481 5480 5478 5477 5475 5473 5471 5469 5467 5465 5463 5460 5458 5456 5454 5451 5449 5446 5444 5441 5439 5436 5434 5432 5430 5427 5425 5424 5422 5420 5418
5489 5488 5487 5486 5485 5484 5483 5482 5481 5480 5479 5478 5476 5475 5474 5472 5471 5469 5467 5466 5464 5462 5460 5457 5455 5453 5450 5448 5446 5443 5440 5438 5435 5433 5430 5428 5426 5424 5422 5421 5419 5417 5415 5414
5483 5482 5481 5480 5479 5478 5477 5476 5475 5474 5473 5472 5470 5469 5468 5466 5465 5463 5461 5460 5458 5456 5454 5452 5449 5447 5445 5442 5440 5437 5435 5432 5430 5427 5425 5423 5421 5419 5418 5416 5415 5413 5411 5410
5478 5476 5476 5475 5474 5473 5471 5470 5469 5468 5467 5465 5464 5463 5461 5460 5458 5457 5455 5454 5452 5450 5448 5446 5444 5441 5439 5437 5435 5432 5429 5427 5424 5422 5420 5418 5417 5415 5414 5412 5411 5409 5407 5406
5471 5470 5469 5468 5467 5466 5465 5464 5463 5462 5461 5459 5458 5456 5455 5453 5451 5450 5449 5447 5445 5444 5442 5440 5438 5436 5434 5431 5429 5427 5424 5422 5420 5418 5416 5414 5413 5411 5410 5408 5407 5405 5404 5402
5465 5463 5462 5462 5461 5460 5459 5458 5457 5455 5454 5453 5451 5450 5448 5446 5445 5443 5442 5441 5439 5437 5436 5434 5432 5430 5428 5426 5424 5422 5419 5417 5415 5413 5412 5410 5409 5407 5406 5404 5403 5401 5400 5398
5458 5457 5456 5455 5454 5453 5452 5451 5450 5449 5447 5446 5445 5443 5442 5440 5439 5437 5435 5434 5432 5431 5429 5428 5426 5424 5422 5420 5418 5416 5414 5413 5411 5409 5408 5406 5405 5404 5402 5401 5399 5397 5396 5395
5452 5451 5450 5449 5448 5447 5446 5445 5443 5442 5441 5440 5438 5436 5435 5433 5432 5430 5428 5427 5426 5424 5423 5421 5419 5418 5416 5414 5413 5411 5409 5408 5406 5405 5403 5402 5401 5399 5398 5397 5395 5394 5393 5391
5446 5445 5443 5442 5441 5440 5439 5438 5436 5435 5434 5432 5431 5429 5428 5426 5425 5423 5421 5420 5418 5417 5416 5414 5413 5411 5410 5408 5407 5405 5404 5403 5401 5400 5398 5397 5396 5395 5394 5392 5391 5390 5389 5388